Flag for Austria Weather past 2 weeks in Gänserndorf, Lower Austria, Austria

Now
47 °F

Overcast.


Feels Like: 42 °F
Forecast: 37 / 51 °F
Wind: 9 mph from North

Location: Wien / Schwechat-Flughafen

Current Time: Oct 23, 2014 at 8:39:50 PM

Latest Report: Oct 23, 2014 at 8:00 PM


Visibility: 13 mi

Pressure: 30.03 "Hg

Humidity: 82%

Dew point: 42 °F

Location of GänserndorfLocation

Historic Weather in Gänserndorf — Graph

°F

Gänserndorf temperature yesterday

Maximum temperature yesterday: 58 °F (at 12:00 AM)
Minimum temperature yesterday: 45 °F (at 10:00 PM)
Average temperature yesterday: 49 °F

Past Weeks' High & Low Weather Summary

 TemperatureHumidityPressure
High74 °F (Oct 9, 4:00 PM)100% (Oct 10, 7:00 AM)30.33 "Hg (Oct 10, 7:00 AM)
Low43 °F (Oct 23, 4:00 AM)52% (Oct 16, 2:00 PM)29.60 "Hg (Oct 22, 1:00 AM)
Average58 °F85%29.94 "Hg
* Reported Oct 8 7:00 PM — Oct 23 7:00 PM, Gänserndorf, Weather by CustomWeather, © 2014

Note: Actual official high and low records may vary slightly from our data, if they occured in-between our weather recording intervals... More about our weather records

Advertising

Gänserndorf weather history for previous 24 hours

 ConditionsComfort  
Time TempWeatherWind HumidityBarometerVisibility
7:00 PM
Oct 23
47 °FLight rain. Overcast.10 mph86%29.99 "Hg12 mi
6:00 PM47 °FLight rain. Overcast.13 mph84%29.98 "Hg12 mi
5:00 PM47 °FLight rain. Overcast.12 mph89%29.93 "Hg9 mi
4:00 PM48 °FLight rain. Overcast.9 mph90%29.93 "Hg11 mi
3:00 PM48 °FHeavy rain. Overcast.9 mph88%29.91 "Hg13 mi
2:00 PM49 °FOvercast.8 mph86%29.89 "Hg25 mi
1:00 PM49 °FLow clouds.10 mph84%29.87 "Hg28 mi
12:00 PM49 °FLow clouds.9 mph87%29.86 "Hg28 mi
11:00 AM48 °FOvercast.7 mph89%29.84 "Hg19 mi
10:00 AM47 °FLow clouds.7 mph94%29.83 "Hg5 mi
9:00 AM47 °FOvercast.6 mph89%29.80 "Hg28 mi
8:00 AM46 °FOvercast.6 mph87%29.77 "Hg31 mi
7:00 AM45 °FOvercast.6 mph89%29.75 "Hg28 mi
6:00 AM44 °FOvercast.8 mph89%29.74 "Hg31 mi
5:00 AM44 °FOvercast.9 mph89%29.74 "Hg31 mi
4:00 AM43 °FLight rain. Overcast.6 mph91%29.75 "Hg10 mi
3:00 AM44 °FLight rain. Overcast.9 mph83%29.75 "Hg22 mi
2:00 AM44 °FOvercast.9 mph77%29.74 "Hg31 mi
1:00 AM45 °FOvercast.10 mph78%29.75 "Hg31 mi
12:00 AM45 °FOvercast.10 mph78%29.76 "Hg31 mi
11:00 PM
Oct 22
45 °FOvercast.10 mph80%29.77 "Hg31 mi
10:00 PM45 °FOvercast.13 mph81%29.77 "Hg31 mi
9:00 PM45 °FOvercast.12 mph81%29.76 "Hg25 mi
8:00 PM46 °FOvercast.9 mph79%29.76 "Hg28 mi
Weather by CustomWeather, © 2014

See weather overviewHow to use our weather pages